FREGAT R/B, 44300

Orbit data source: Space-Track

FREGAT R/B, 44300 is space debris in MEO originally from a launch on Mon, 27 May 2019 UTC launched from the Plesetsk Missile And Space Complex (PKMTR). Debris objects in space refer to the collection of defunct objects orbiting the Earth. Examples of debris include non-operational satellites, rocket bodies, and fragments generated from explosions, collisions, or faulty payload assembly.

Loading next visibility...
Identifier
44300, 2019-030B
Orbit
MEO
Country
Flag of CISCIS
Related business
Manufacturer
Lavochkin
Mission
Spacecraft
Bus & Motor
FREGAT, Unknown motor
Mass
1,000 kg wet, 1,000 kg dry
Launch date (UTC)
2019-05-27 (7 years ago)
Launch vehicle
Unknown
Launch site
Plesetsk Missile And Space Complex (PKMTR)
Object type
Payload
Rocket body
Debris
Shape & HBR
Cyl, 1.7 m
Radar Cross Section
8.354 m², Large (>1 m²)

Expand to show TLE details & history
Last TLE update: 5 days ago

TLE from 5 days ago
0 FREGAT R/B
1 44300U 19030B   25344.47801078  .00000042  00000-0  00000+0 0  9992
2 44300  64.3015 202.1888 0070992 135.1846 225.4636  2.09028770 49945
Epoch: 2025-12-10T11:28Z
TLE epoch observation values (Epoch: 2025-12-10T11:28:20.131Z)
Latitude
0.00001°
Longitude
-49.33895°
Altitude
19,590.113 km
Speed
3.908 km/s
True Right ascension
13h 28m 46s
True Declination
0° 00' 00"
Sunlit
Object was in daylight at epoch
Visualization orbit readout
Latitude
Unknown
Longitude
Unknown
Altitude
Unknown
Speed
Unknown
Apparent Right ascension
Unknown
Apparent Declination
Unknown
Sunlit
N/A
Visualization observer readout
Local Sidereal Time
20:42:54
Azimuth
Unknown
Elevation
Unknown
Doppler factor
Unknown
Orbital elements
Apogee altitude
19,643.268 km
Perigee altitude
19,276.41 km
Semi-major axis
25,837.976 km
Eccentricity
0.0071
Inclination
64.3015°
RAAN
202.1888°
Arg. of periapsis
135.1846°
True anomaly
224.88732°
Mean anomaly
225.4636°
Eccentric anomaly
225.1751°
Mean motion
0.52258 °/min
Orbital period
688.89 mins
BSTAR
0
Loading maneuver chart data...
Computing Atmospheric mass density...
Loading historical data...
Loading historical data...
Loading historical data...
Loading historical data...
Loading historical data...
Loading historical data...
Loading historical data...
Other satellites on launch #30 in the year 2019 (2019-05-27 UTC)

Documentation

Showing up to 5 results
|